Augusta, ME

9:07 PM EST on February 06, 2016 (GMT -0500)
Augusta State

Weather History for KAUG - July, 2013

Change the Weather History Date:

Wednesday, July 17, 2013

  Actual Average Record
Temperature  
Mean Temperature 76 °F 70 °F  
Max Temperature 87 °F 80 °F 96 °F (1999)
Min Temperature 66 °F 60 °F 52 °F (2015)
Degree Days  
Heating Degree Days 0 0  
Month to date heating degree days 12  
Since 1 June heating degree days 106  
Since 1 July heating degree days 12  
Cooling Degree Days 11 5  
Month to date cooling degree days 80  
Year to date cooling degree days 153  
Since 1 June cooling degree days 144  
Growing Degree Days 26 (Base 50)    
Moisture  
Dew Point 68 °F    
Average Humidity 80    
Maximum Humidity 96    
Minimum Humidity 58    
Precipitation  
Precipitation 0.26 in 0.11 in 0.26 in (2013)
Month to date precipitation 1.81  
Year to date precipitation 21.26  
Sea Level Pressure  
Sea Level Pressure 30.07 in    
Wind  
Wind Speed 5 mph (South)    
Max Wind Speed 14 mph    
Max Gust Speed 23 mph    
Visibility 8 miles    
Events Rain , Thunderstorm    
T = Trace of Precipitation, MM = Missing Value Source: NWS Daily Summary

Daily Weather History Graph

Daily Weather History Graph

Search for Another Location

Airport or City:

Trip Planner

Search our weather history database for the weather conditions in past years. The results will help you decide how hot, cold, wet, or windy it might be!

Date:

Astronomy

Jul. 17, 2013 Rise Set
Actual Time 5:11 AM EDT 8:19 PM EDT
Civil Twilight 4:36 AM EDT 8:53 PM EDT
Nautical Twilight 3:51 AM EDT 9:38 PM EDT
Astronomical Twilight 2:56 AM EDT 10:33 PM EDT
Moon 3:01 PM EDT (7/17) 12:20 AM EDT (7/17)
Length of Visible Light 16h 17m
Length of Day
15h 07m
Waxing Gibbous, 67% of the Moon is Illuminated
Jul 17
Waxing Gibbous
Jul 22
Full
Jul 29
Last Quarter
Aug 6
New
Aug 14
First Quarter

Hourly Weather History & Observations

Time (EDT) Temp. Heat Index Dew Point Humidity Pressure Visibility Wind Dir Wind Speed Gust Speed Precip Events Conditions
12:53 AM 70.0 °F - 64.9 °F 84% 30.17 in 10.0 mi ESE 4.6 mph - N/A   Mostly Cloudy
1:53 AM 69.1 °F - 64.9 °F 87% 30.16 in 10.0 mi SE 6.9 mph - N/A   Clear
2:53 AM 68.0 °F - 64.9 °F 90% 30.16 in 10.0 mi Calm Calm - N/A   Partly Cloudy
3:53 AM 66.9 °F - 64.9 °F 93% 30.16 in 9.0 mi Calm Calm - N/A   Clear
4:53 AM 66.9 °F - 64.9 °F 93% 30.17 in 7.0 mi Calm Calm - N/A   Scattered Clouds
5:53 AM 66.9 °F - 64.9 °F 93% 30.18 in 5.0 mi SSE 4.6 mph - N/A   Clear
6:53 AM 69.1 °F - 66.0 °F 90% 30.18 in 7.0 mi SSE 5.8 mph - N/A   Scattered Clouds
7:53 AM 71.1 °F - 66.0 °F 84% 30.17 in 9.0 mi SSE 4.6 mph - N/A   Clear
8:53 AM 73.9 °F - 66.9 °F 79% 30.17 in 10.0 mi Variable 5.8 mph - N/A   Clear
9:53 AM 78.1 °F - 69.1 °F 74% 30.16 in 10.0 mi South 6.9 mph - N/A   Clear
10:53 AM 80.1 °F 82.9 °F 69.1 °F 69% 30.15 in 10.0 mi Variable 5.8 mph - N/A   Mostly Cloudy
11:53 AM 82.9 °F 85.8 °F 68.0 °F 60% 30.12 in 10.0 mi SSW 6.9 mph - N/A   Clear
12:53 PM 84.0 °F 87.0 °F 68.0 °F 58% 30.11 in 10.0 mi Variable 6.9 mph - N/A   Clear
1:53 PM 84.9 °F 88.8 °F 69.1 °F 59% 30.08 in 10.0 mi South 10.4 mph - N/A   Clear
2:53 PM 86.0 °F 90.7 °F 70.0 °F 59% 30.05 in 10.0 mi SSW 6.9 mph 16.1 mph N/A   Clear
3:53 PM 86.0 °F 91.5 °F 71.1 °F 61% 30.01 in 10.0 mi South 11.5 mph 18.4 mph N/A   Clear
4:53 PM 84.0 °F 89.6 °F 72.0 °F 67% 30.00 in 10.0 mi South 8.1 mph 19.6 mph N/A   Clear
5:53 PM 82.9 °F 87.5 °F 71.1 °F 67% 29.97 in 10.0 mi South 9.2 mph 18.4 mph N/A   Clear
6:53 PM 80.1 °F 82.9 °F 69.1 °F 69% 29.97 in 10.0 mi SSW 11.5 mph 18.4 mph N/A   Clear
7:53 PM 75.9 °F - 66.0 °F 71% 29.96 in 10.0 mi South 5.8 mph 16.1 mph N/A   Clear
8:53 PM 75.0 °F - 66.9 °F 76% 29.96 in 10.0 mi South 4.6 mph - N/A   Partly Cloudy
9:40 PM 73.4 °F - 68.0 °F 83% 29.98 in 7.0 mi SW 5.8 mph - 0.01 in Rain , Thunderstorm Light Rain
9:51 PM 73.4 °F - 69.8 °F 88% 30.02 in 1.8 mi West 13.8 mph 23.0 mph 0.14 in Rain , Thunderstorm Heavy Thunderstorms and Rain
9:53 PM 72.0 °F - 69.1 °F 91% 30.01 in 1.5 mi WNW 12.7 mph 23.0 mph 0.17 in Rain , Thunderstorm Heavy Thunderstorms and Rain
10:02 PM 71.6 °F - 69.8 °F 94% 30.01 in 3.0 mi West 6.9 mph - 0.03 in Rain , Thunderstorm Light Thunderstorms and Rain
10:37 PM 71.6 °F - 69.8 °F 94% 29.98 in 10.0 mi SSE 3.5 mph - 0.09 in Rain Light Rain
10:53 PM 71.1 °F - 70.0 °F 96% 29.97 in 9.0 mi South 3.5 mph - 0.09 in   Mostly Cloudy
11:22 PM 71.6 °F - 69.8 °F 94% 29.95 in 7.0 mi South 4.6 mph - N/A   Scattered Clouds
11:53 PM 71.1 °F - 69.1 °F 93% 29.97 in 10.0 mi West 4.6 mph - N/A   Mostly Cloudy